Regional Weather Roundup
Issued by NWS

Home | Current Version | Previous Version | Text Only | Print | Product List | Glossary Off
Versions: 1 2 3 4 5 6 7 8 9 10 11 12 13 14 15 16 17 18 19 20 21 22 23 24 25 26 27 28 29 30 31 32 33 34 35 36 37 38 39 40 41 42 43 44 45 46 47 48 49 50

000
ASUS43 KOAX 201902
RWRNE

WEATHER ROUNDUP FOR NEBRASKA
NATIONAL WEATHER SERVICE OMAHA NE
100 PM CST FRI JAN 20 2017

NOTES: SATELLITE DATA IS BEING USED TO AUGMENT CLOUD COVER ABOVE
       12000 FEET.
       "FAIR" INDICATES FEW OR NO CLOUDS BELOW 12,000 FEET WITH NO
       SIGNIFICANT WEATHER AND/OR OBSTRUCTIONS TO VISIBILITY.

  * THESE STATIONS DO NOT REPORT WEATHER SUCH AS RAIN...SNOW OR FOG.

NEZ001>004-019>022-054>056-202000-
NEBRASKA PANHANDLE

CITY           SKY/WX    TMP DP  RH WIND       PRES   REMARKS
SCOTTSBLUFF    CLOUDY    41  29  62 W13       29.38F
ALLIANCE       MOSUNNY   40  29  64 NW14      29.34F WCI  32
CHADRON        MOSUNNY   35  28  75 SW5       29.37F WCI  31
SIDNEY         CLOUDY    41  29  62 NW16      29.38F
$$

NEZ057>060-069>072-079>082-202000-
SOUTHWEST NEBRASKA

CITY           SKY/WX    TMP DP  RH WIND       PRES   REMARKS
NORTH PLATTE   CLOUDY    39  34  82 W6        29.40F WCI  35
IMPERIAL       CLOUDY    32  32 100 CALM      29.38F
LEXINGTON      CLOUDY    40  39  95 SW3       29.41F
MCCOOK         CLOUDY    36  35  96 W3        29.41F
OGALLALA       CLOUDY    38  37  96 CALM      29.37F
$$

NEZ005>010-023>029-035>040-094-202000-
NORTH CENTRAL NEBRASKA

CITY           SKY/WX    TMP DP  RH WIND       PRES   REMARKS
VALENTINE      SUNNY     42  26  53 SW9       29.33F
AINSWORTH      SUNNY     42  33  71 S16       29.35F
BROKEN BOW     CLOUDY    40  37  89 S7        29.39F
O`NEILL        PTSUNNY   47  38  71 S17G23    29.38F
ORD            CLOUDY    40  38  93 S8        29.40F WCI  34
THEDFORD       CLOUDY    35  33  90 S15       29.38F WCI  26
$$

NEZ041-046>049-061>064-073>077-083>087-202000-
SOUTH CENTRAL NEBRASKA

CITY           SKY/WX    TMP DP  RH WIND       PRES   REMARKS
GRAND ISLAND   CLOUDY    41  41 100 S8        29.43F
AURORA         CLOUDY    42  42 100 SE8       29.44F
HASTINGS       CLOUDY    40  40 100 SE6       29.44F
HEBRON         CLOUDY    44  44 100 SE6       29.44F FOG
HOLDREGE         N/A     39  38  97 SW3       29.41F VSB 1/4
KEARNEY *      CLOUDY    41  37  87 S8        29.42F
YORK           CLOUDY    41  41 100 S9        29.45F
$$

NEZ011>018-030>034-042>045-202000-
NORTHEAST NEBRASKA

CITY           SKY/WX    TMP DP  RH WIND       PRES   REMARKS
NORFOLK        CLOUDY    40  39  97 S8        29.44F FOG     WCI  34
ALBION         CLOUDY   N/A N/A N/A S7        29.43F FOG
BLAIR          CLOUDY    42  42  99 SE6       29.48F FOG
FREMONT        DRIZZLE   41  41 100 SE6       29.48F
TEKAMAH        CLOUDY    43  41  93 SE6       29.49F FOG
WAYNE          CLOUDY    41  40  97 S14       29.45F
$$

NEZ050>053-065>068-078-088>093-202000-
SOUTHEAST NEBRASKA

CITY           SKY/WX    TMP DP  RH WIND       PRES   REMARKS
LINCOLN        CLOUDY    43  42  97 SE8       29.48F
OMAHA EPPLEY   CLOUDY    44  40  85 SE8       29.49F
BEATRICE       CLOUDY    45  45 100 E5        29.46F FOG
FALLS CITY     LGT RAIN  44  44 100 E6        29.47F VSB 1/4
NEBRASKA CITY  CLOUDY    43  43 100 E8        29.49F FOG
PLATTSMOUTH    CLOUDY    42  40  93 SE5       29.49F FOG
$$

NEZ044-045-051>053-067-202000-
OMAHA AREA

CITY           SKY/WX    TMP DP  RH WIND       PRES   REMARKS
OMAHA EPPLEY   CLOUDY    44  40  85 SE8       29.49F
BLAIR          CLOUDY    42  42  99 SE6       29.48F FOG
FREMONT        DRIZZLE   41  41 100 SE6       29.48F
MILLARD        CLOUDY    44  43  96 SE5       29.49F
OFFUTT AFB     CLOUDY    43  43 100 E6        29.49F
PLATTSMOUTH    CLOUDY    42  40  93 SE5       29.49F FOG
WAHOO          FOG       40  39  97 SE5       29.48F VSB 1/4
$$




USA.gov is the U.S. government's official web portal to all federal, state and local government web resources and services.